When you browse on this site, cookies collect data to enhance your experience and personalize the content and advertising you see.
Visit our Privacy Policy to learn more. By continuing to use the site, you agree to this use of cookies and data.
  • In Switzerland
  • List of Countries
  • For 7 days
  • Water Temperature
  • Weather Map
  • Weather Widgets
  • user-avatar
    Login

    Hourly Weather Santiago del Estero

    Today, 4 June, Thursday

    Time Temperature Precipitation Wind Pressure Humidity
    00:00 +13°C° 0 mm 3 mps 750 mmHg 66%
    01:00 +13°C° 0 mm 4 mps 750 mmHg 68%
    02:00 +13°C° 0 mm 4 mps 750 mmHg 69%
    03:00 +12°C° 0.1 mm 4 mps 750 mmHg 74%
    04:00 +12°C° 0.1 mm 4 mps 750 mmHg 79%
    05:00 +11°C° 0.1 mm 4 mps 749 mmHg 83%
    06:00 +11°C° 0 mm 4 mps 750 mmHg 84%
    07:00 +11°C° 0 mm 4 mps 750 mmHg 85%
    08:00 +11°C° 0 mm 3 mps 750 mmHg 86%
    09:00 +11°C° 0 mm 3 mps 750 mmHg 85%
    10:00 +11°C° 0 mm 3 mps 750 mmHg 84%
    11:00 +12°C° 0 mm 4 mps 750 mmHg 84%
    12:00 +12°C° 0 mm 4 mps 749 mmHg 83%
    13:00 +12°C° 0 mm 4 mps 749 mmHg 82%
    14:00 +12°C° 0 mm 4 mps 748 mmHg 82%
    15:00 +12°C° 0 mm 4 mps 748 mmHg 82%
    16:00 +12°C° 0 mm 4 mps 748 mmHg 82%
    17:00 +12°C° 0 mm 3 mps 748 mmHg 81%
    18:00 +12°C° 0.5 mm 3 mps 748 mmHg 84%
    19:00 +11°C° 0.5 mm 3 mps 748 mmHg 87%
    20:00 +11°C° 0.5 mm 3 mps 748 mmHg 90%
    21:00 +11°C° 0.6 mm 3 mps 748 mmHg 91%
    22:00 +11°C° 0.6 mm 3 mps 748 mmHg 91%
    23:00 +11°C° 0.6 mm 3 mps 748 mmHg 92%

    Tomorrow, 5 June, Friday

    Time Temperature Precipitation Wind Pressure Humidity
    00:00 +10°C° 0 mm 3 mps 748 mmHg 92%
    01:00 +10°C° 0 mm 3 mps 747 mmHg 93%
    02:00 +10°C° 0 mm 3 mps 747 mmHg 93%
    03:00 +9°C° 0 mm 3 mps 747 mmHg 93%
    04:00 +9°C° 0 mm 2 mps 746 mmHg 93%
    05:00 +9°C° 0 mm 2 mps 746 mmHg 92%
    06:00 +9°C° 0 mm 2 mps 746 mmHg 90%
    07:00 +10°C° 0 mm 2 mps 747 mmHg 88%
    08:00 +11°C° 0 mm 1 mps 747 mmHg 86%
    09:00 +13°C° 0 mm 2 mps 747 mmHg 77%
    10:00 +15°C° 0 mm 2 mps 747 mmHg 68%
    11:00 +16°C° 0 mm 2 mps 747 mmHg 59%
    12:00 +18°C° 0 mm 2 mps 746 mmHg 53%
    13:00 +19°C° 0 mm 2 mps 745 mmHg 47%
    14:00 +20°C° 0 mm 2 mps 744 mmHg 41%
    15:00 +19°C° 0 mm 2 mps 744 mmHg 44%
    16:00 +20°C° 0 mm 1 mps 744 mmHg 47%
    17:00 +19°C° 0 mm 1 mps 744 mmHg 50%
    18:00 +16°C° 0 mm 1 mps 744 mmHg 54%
    19:00 +15°C° 0 mm 1 mps 744 mmHg 58%
    20:00 +13°C° 0 mm 1 mps 744 mmHg 62%
    21:00 +13°C° 0 mm 2 mps 745 mmHg 63%
    22:00 +13°C° 0 mm 2 mps 745 mmHg 64%
    23:00 +13°C° 0 mm 2 mps 745 mmHg 65%

    Day after tomorrow, 6 June, Saturday

    Time Temperature Precipitation Wind Pressure Humidity
    00:00 +12°C° 0 mm 2 mps 745 mmHg 66%
    01:00 +12°C° 0 mm 2 mps 744 mmHg 67%
    02:00 +12°C° 0 mm 2 mps 744 mmHg 68%
    03:00 +10°C° 0 mm 2 mps 744 mmHg 69%
    04:00 +10°C° 0 mm 2 mps 744 mmHg 71%
    05:00 +10°C° 0 mm 2 mps 744 mmHg 73%
    06:00 +10°C° 0 mm 2 mps 744 mmHg 72%
    07:00 +10°C° 0 mm 2 mps 744 mmHg 71%
    08:00 +12°C° 0 mm 2 mps 744 mmHg 70%
    09:00 +14°C° 0 mm 2 mps 744 mmHg 62%
    10:00 +17°C° 0 mm 2 mps 744 mmHg 54%
    11:00 +20°C° 0 mm 2 mps 743 mmHg 45%
    12:00 +21°C° 0 mm 3 mps 743 mmHg 41%
    13:00 +24°C° 0 mm 3 mps 742 mmHg 37%
    14:00 +25°C° 0 mm 4 mps 741 mmHg 33%
    15:00 +24°C° 0 mm 3 mps 741 mmHg 35%
    16:00 +23°C° 0 mm 2 mps 740 mmHg 37%
    17:00 +22°C° 0 mm 1 mps 740 mmHg 39%
    18:00 +20°C° 0 mm 2 mps 741 mmHg 41%
    19:00 +18°C° 0 mm 2 mps 741 mmHg 42%
    20:00 +17°C° 0 mm 2 mps 741 mmHg 44%
    21:00 +16°C° 0 mm 2 mps 741 mmHg 46%
    22:00 +16°C° 0 mm 3 mps 742 mmHg 48%
    23:00 +14°C° 0 mm 3 mps 742 mmHg 50%

    7 June, Sunday

    Time Temperature Precipitation Wind Pressure Humidity
    00:00 +14°C° 0 mm 3 mps 742 mmHg 53%
    01:00 +13°C° 0 mm 3 mps 742 mmHg 57%
    02:00 +13°C° 0 mm 3 mps 742 mmHg 60%
    03:00 +12°C° 0 mm 3 mps 742 mmHg 64%
    04:00 +12°C° 0 mm 3 mps 742 mmHg 68%
    05:00 +11°C° 0 mm 3 mps 742 mmHg 72%
    06:00 +11°C° 0 mm 3 mps 742 mmHg 72%
    07:00 +13°C° 0 mm 2 mps 742 mmHg 72%
    08:00 +13°C° 0 mm 2 mps 743 mmHg 73%
    09:00 +14°C° 0 mm 3 mps 743 mmHg 66%
    10:00 +18°C° 0 mm 3 mps 743 mmHg 60%
    11:00 +20°C° 0 mm 4 mps 743 mmHg 54%
    12:00 +22°C° 0 mm 4 mps 742 mmHg 53%
    13:00 +23°C° 0 mm 4 mps 742 mmHg 52%
    14:00 +25°C° 0 mm 4 mps 741 mmHg 51%
    15:00 +25°C° 0 mm 4 mps 741 mmHg 54%
    16:00 +23°C° 0 mm 4 mps 741 mmHg 56%
    17:00 +24°C° 0 mm 3 mps 741 mmHg 59%
    18:00 +21°C° 0 mm 3 mps 741 mmHg 62%
    19:00 +20°C° 0 mm 2 mps 742 mmHg 65%
    20:00 +19°C° 0 mm 2 mps 742 mmHg 68%
    21:00 +19°C° 0 mm 2 mps 742 mmHg 69%
    22:00 +19°C° 0 mm 3 mps 742 mmHg 70%
    23:00 +18°C° 0 mm 3 mps 742 mmHg 72%

    8 June, Monday

    Time Temperature Precipitation Wind Pressure Humidity
    00:00 +17°C° 0 mm 3 mps 742 mmHg 76%
    01:00 +16°C° 0 mm 2 mps 742 mmHg 80%
    02:00 +15°C° 0 mm 2 mps 742 mmHg 84%
    03:00 +15°C° 0 mm 2 mps 742 mmHg 86%
    04:00 +14°C° 0 mm 1 mps 742 mmHg 88%
    05:00 +14°C° 0 mm 1 mps 741 mmHg 90%
    06:00 +14°C° 0 mm 1 mps 742 mmHg 88%
    07:00 +15°C° 0 mm 1 mps 742 mmHg 87%
    08:00 +16°C° 0 mm 1 mps 743 mmHg 85%
    09:00 +19°C° 0 mm 1 mps 743 mmHg 77%
    10:00 +21°C° 0 mm 1 mps 743 mmHg 69%
    11:00 +23°C° 0 mm 1 mps 743 mmHg 60%
    12:00 +24°C° 0 mm 1 mps 742 mmHg 57%
    13:00 +25°C° 0 mm 1 mps 741 mmHg 53%
    14:00 +26°C° 0 mm 1 mps 740 mmHg 50%
    15:00 +25°C° 0 mm 1 mps 740 mmHg 53%
    16:00 +24°C° 0 mm 1 mps 740 mmHg 56%
    17:00 +23°C° 0 mm 1 mps 740 mmHg 59%
    18:00 +22°C° 0 mm 1 mps 740 mmHg 65%
    19:00 +21°C° 0 mm 1 mps 741 mmHg 71%
    20:00 +19°C° 0 mm 1 mps 741 mmHg 77%
    21:00 +19°C° 0 mm 1 mps 741 mmHg 78%
    22:00 +19°C° 0 mm 1 mps 741 mmHg 80%
    23:00 +19°C° 0 mm 1 mps 742 mmHg 81%

    9 June, Tuesday

    Time Temperature Precipitation Wind Pressure Humidity
    00:00 +18°C° 0 mm 1 mps 741 mmHg 83%
    01:00 +18°C° 0 mm 1 mps 741 mmHg 85%
    02:00 +18°C° 0 mm 1 mps 741 mmHg 87%
    03:00 +17°C° 0 mm 2 mps 741 mmHg 87%
    04:00 +17°C° 0 mm 2 mps 741 mmHg 88%
    05:00 +16°C° 0 mm 2 mps 741 mmHg 88%
    06:00 +17°C° 0 mm 2 mps 742 mmHg 87%
    07:00 +18°C° 0 mm 3 mps 743 mmHg 85%
    08:00 +18°C° 0 mm 3 mps 743 mmHg 84%
    09:00 +18°C° 0 mm 3 mps 743 mmHg 81%
    10:00 +19°C° 0 mm 3 mps 743 mmHg 79%
    11:00 +19°C° 0 mm 4 mps 743 mmHg 77%
    12:00 +19°C° 0 mm 4 mps 743 mmHg 75%
    13:00 +19°C° 0 mm 4 mps 742 mmHg 73%
    14:00 +19°C° 0 mm 4 mps 742 mmHg 72%
    15:00 +19°C° 0 mm 4 mps 742 mmHg 72%
    16:00 +19°C° 0 mm 4 mps 742 mmHg 72%
    17:00 +18°C° 0 mm 4 mps 742 mmHg 72%
    18:00 +18°C° 0 mm 3 mps 742 mmHg 74%
    19:00 +17°C° 0 mm 3 mps 742 mmHg 76%
    20:00 +17°C° 0 mm 3 mps 742 mmHg 77%
    21:00 +17°C° 0 mm 3 mps 743 mmHg 78%
    22:00 +16°C° 0 mm 2 mps 743 mmHg 78%
    23:00 +16°C° 0 mm 2 mps 743 mmHg 79%
    Show more